Date_Time,Julian_Date,Latitude,Longitude,Instrument_Depth,Water_Salinity
(yyyy-mm-dd hh:mn:ss UTC),(JD),(+ deg. North),(+ deg. East),(m),(ppt)
1981-08-14 02:00:00 UTC,2444830.583333,29.6650,-93.4789,0073,28.1000
1981-08-14 02:30:00 UTC,2444830.604167,29.6650,-93.4789,0073,28.2000
1981-08-14 03:00:00 UTC,2444830.625000,29.6650,-93.4789,0073,28.5000
1981-08-14 03:30:00 UTC,2444830.645833,29.6650,-93.4789,0073,28.5000
1981-08-14 04:00:00 UTC,2444830.666667,29.6650,-93.4789,0073,28.2000
1981-08-14 04:30:00 UTC,2444830.687500,29.6650,-93.4789,0073,28.1000
1981-08-14 05:00:00 UTC,2444830.708333,29.6650,-93.4789,0073,28.1000
1981-08-14 05:30:00 UTC,2444830.729167,29.6650,-93.4789,0073,28.1000
1981-08-14 06:00:00 UTC,2444830.750000,29.6650,-93.4789,0073,28.0000
1981-08-14 06:30:00 UTC,2444830.770833,29.6650,-93.4789,0073,28.1000
1981-08-14 07:00:00 UTC,2444830.791667,29.6650,-93.4789,0073,28.3000
1981-08-14 07:30:00 UTC,2444830.812500,29.6650,-93.4789,0073,28.4000
1981-08-14 08:00:00 UTC,2444830.833333,29.6650,-93.4789,0073,28.4000
1981-08-14 08:30:00 UTC,2444830.854167,29.6650,-93.4789,0073,28.4000
1981-08-14 09:00:00 UTC,2444830.875000,29.6650,-93.4789,0073,28.4000
1981-08-14 09:30:00 UTC,2444830.895833,29.6650,-93.4789,0073,28.5000
1981-08-14 10:00:00 UTC,2444830.916667,29.6650,-93.4789,0073,28.8000
1981-08-14 10:30:00 UTC,2444830.937500,29.6650,-93.4789,0073,28.9000
1981-08-14 11:00:00 UTC,2444830.958333,29.6650,-93.4789,0073,28.8000
1981-08-14 11:30:00 UTC,2444830.979167,29.6650,-93.4789,0073,28.6000
1981-08-14 12:00:00 UTC,2444831.000000,29.6650,-93.4789,0073,28.5000
1981-08-14 12:30:00 UTC,2444831.020833,29.6650,-93.4789,0073,28.5000
1981-08-14 13:00:00 UTC,2444831.041667,29.6650,-93.4789,0073,28.6000
1981-08-14 13:30:00 UTC,2444831.062500,29.6650,-93.4789,0073,28.7000
1981-08-14 14:00:00 UTC,2444831.083333,29.6650,-93.4789,0073,28.8000
1981-08-14 14:30:00 UTC,2444831.104167,29.6650,-93.4789,0073,28.8000
1981-08-14 15:00:00 UTC,2444831.125000,29.6650,-93.4789,0073,28.7000
1981-08-14 15:30:00 UTC,2444831.145833,29.6650,-93.4789,0073,28.5000
1981-08-14 16:00:00 UTC,2444831.166667,29.6650,-93.4789,0073,28.6000
1981-08-14 16:30:00 UTC,2444831.187500,29.6650,-93.4789,0073,28.8000
1981-08-14 17:00:00 UTC,2444831.208333,29.6650,-93.4789,0073,28.8000
1981-08-14 17:30:00 UTC,2444831.229167,29.6650,-93.4789,0073,28.7000
1981-08-14 18:00:00 UTC,2444831.250000,29.6650,-93.4789,0073,28.7000
1981-08-14 18:30:00 UTC,2444831.270833,29.6650,-93.4789,0073,28.7000
1981-08-14 19:00:00 UTC,2444831.291667,29.6650,-93.4789,0073,28.8000
1981-08-14 19:30:00 UTC,2444831.312500,29.6650,-93.4789,0073,28.8000
1981-08-14 20:00:00 UTC,2444831.333333,29.6650,-93.4789,0073,28.9000
1981-08-14 20:30:00 UTC,2444831.354167,29.6650,-93.4789,0073,29.0000
1981-08-14 21:00:00 UTC,2444831.375000,29.6650,-93.4789,0073,29.2000
1981-08-14 21:30:00 UTC,2444831.395833,29.6650,-93.4789,0073,29.1000
1981-08-14 22:00:00 UTC,2444831.416667,29.6650,-93.4789,0073,29.0000
1981-08-14 22:30:00 UTC,2444831.437500,29.6650,-93.4789,0073,28.9000
1981-08-14 23:00:00 UTC,2444831.458333,29.6650,-93.4789,0073,29.2000
1981-08-14 23:30:00 UTC,2444831.479167,29.6650,-93.4789,0073,29.8000
1981-08-15 00:00:00 UTC,2444831.500000,29.6650,-93.4789,0073,29.6000
1981-08-15 00:30:00 UTC,2444831.520833,29.6650,-93.4789,0073,29.2000
1981-08-15 01:00:00 UTC,2444831.541667,29.6650,-93.4789,0073,29.1000
1981-08-15 01:30:00 UTC,2444831.562500,29.6650,-93.4789,0073,29.2000
1981-08-15 02:00:00 UTC,2444831.583333,29.6650,-93.4789,0073,29.0000
1981-08-15 02:30:00 UTC,2444831.604167,29.6650,-93.4789,0073,28.6000
1981-08-15 03:00:00 UTC,2444831.625000,29.6650,-93.4789,0073,28.3000
1981-08-15 03:30:00 UTC,2444831.645833,29.6650,-93.4789,0073,28.1000
1981-08-15 04:00:00 UTC,2444831.666667,29.6650,-93.4789,0073,28.1000
1981-08-15 04:30:00 UTC,2444831.687500,29.6650,-93.4789,0073,28.3000
1981-08-15 05:00:00 UTC,2444831.708333,29.6650,-93.4789,0073,28.4000
1981-08-15 05:30:00 UTC,2444831.729167,29.6650,-93.4789,0073,28.2000
1981-08-15 06:00:00 UTC,2444831.750000,29.6650,-93.4789,0073,28.1000
1981-08-15 06:30:00 UTC,2444831.770833,29.6650,-93.4789,0073,28.2000
1981-08-15 07:00:00 UTC,2444831.791667,29.6650,-93.4789,0073,28.2000
1981-08-15 07:30:00 UTC,2444831.812500,29.6650,-93.4789,0073,28.2000
1981-08-15 08:00:00 UTC,2444831.833333,29.6650,-93.4789,0073,28.3000
1981-08-15 08:30:00 UTC,2444831.854167,29.6650,-93.4789,0073,28.4000
1981-08-15 09:00:00 UTC,2444831.875000,29.6650,-93.4789,0073,28.5000
1981-08-15 09:30:00 UTC,2444831.895833,29.6650,-93.4789,0073,28.9000
1981-08-15 10:00:00 UTC,2444831.916667,29.6650,-93.4789,0073,29.1000
1981-08-15 10:30:00 UTC,2444831.937500,29.6650,-93.4789,0073,29.0000
1981-08-15 11:00:00 UTC,2444831.958333,29.6650,-93.4789,0073,29.0000
1981-08-15 11:30:00 UTC,2444831.979167,29.6650,-93.4789,0073,28.8000
1981-08-15 12:00:00 UTC,2444832.000000,29.6650,-93.4789,0073,28.6000
1981-08-15 12:30:00 UTC,2444832.020833,29.6650,-93.4789,0073,28.5000
1981-08-15 13:00:00 UTC,2444832.041667,29.6650,-93.4789,0073,28.4000
1981-08-15 13:30:00 UTC,2444832.062500,29.6650,-93.4789,0073,28.4000
1981-08-15 14:00:00 UTC,2444832.083333,29.6650,-93.4789,0073,28.5000
1981-08-15 14:30:00 UTC,2444832.104167,29.6650,-93.4789,0073,28.5000
1981-08-15 15:00:00 UTC,2444832.125000,29.6650,-93.4789,0073,28.5000
1981-08-15 15:30:00 UTC,2444832.145833,29.6650,-93.4789,0073,28.5000
1981-08-15 16:00:00 UTC,2444832.166667,29.6650,-93.4789,0073,28.6000
1981-08-15 16:30:00 UTC,2444832.187500,29.6650,-93.4789,0073,28.7000
1981-08-15 17:00:00 UTC,2444832.208333,29.6650,-93.4789,0073,28.8000
1981-08-15 17:30:00 UTC,2444832.229167,29.6650,-93.4789,0073,28.9000
1981-08-15 18:00:00 UTC,2444832.250000,29.6650,-93.4789,0073,29.0000
1981-08-15 18:30:00 UTC,2444832.270833,29.6650,-93.4789,0073,29.2000
1981-08-15 19:00:00 UTC,2444832.291667,29.6650,-93.4789,0073,29.3000
1981-08-15 19:30:00 UTC,2444832.312500,29.6650,-93.4789,0073,29.3000
1981-08-15 20:00:00 UTC,2444832.333333,29.6650,-93.4789,0073,29.3000
1981-08-15 20:30:00 UTC,2444832.354167,29.6650,-93.4789,0073,29.3000
1981-08-15 21:00:00 UTC,2444832.375000,29.6650,-93.4789,0073,29.2000
1981-08-15 21:30:00 UTC,2444832.395833,29.6650,-93.4789,0073,29.0000
1981-08-15 22:00:00 UTC,2444832.416667,29.6650,-93.4789,0073,28.9000
1981-08-15 22:30:00 UTC,2444832.437500,29.6650,-93.4789,0073,28.8000
1981-08-15 23:00:00 UTC,2444832.458333,29.6650,-93.4789,0073,28.6000
1981-08-15 23:30:00 UTC,2444832.479167,29.6650,-93.4789,0073,28.5000
1981-08-16 00:00:00 UTC,2444832.500000,29.6650,-93.4789,0073,28.5000
1981-08-16 00:30:00 UTC,2444832.520833,29.6650,-93.4789,0073,28.5000
1981-08-16 01:00:00 UTC,2444832.541667,29.6650,-93.4789,0073,28.5000
1981-08-16 01:30:00 UTC,2444832.562500,29.6650,-93.4789,0073,28.7000
1981-08-16 02:00:00 UTC,2444832.583333,29.6650,-93.4789,0073,29.0000
1981-08-16 02:30:00 UTC,2444832.604167,29.6650,-93.4789,0073,29.2000
1981-08-16 03:00:00 UTC,2444832.625000,29.6650,-93.4789,0073,29.2000
1981-08-16 03:30:00 UTC,2444832.645833,29.6650,-93.4789,0073,29.1000
1981-08-16 04:00:00 UTC,2444832.666667,29.6650,-93.4789,0073,29.1000
1981-08-16 04:30:00 UTC,2444832.687500,29.6650,-93.4789,0073,29.0000
1981-08-16 05:00:00 UTC,2444832.708333,29.6650,-93.4789,0073,28.8000
1981-08-16 05:30:00 UTC,2444832.729167,29.6650,-93.4789,0073,28.7000
1981-08-16 06:00:00 UTC,2444832.750000,29.6650,-93.4789,0073,28.6000
1981-08-16 06:30:00 UTC,2444832.770833,29.6650,-93.4789,0073,28.6000
1981-08-16 07:00:00 UTC,2444832.791667,29.6650,-93.4789,0073,28.6000
1981-08-16 07:30:00 UTC,2444832.812500,29.6650,-93.4789,0073,28.7000
1981-08-16 08:00:00 UTC,2444832.833333,29.6650,-93.4789,0073,28.9000
1981-08-16 08:30:00 UTC,2444832.854167,29.6650,-93.4789,0073,29.0000
1981-08-16 09:00:00 UTC,2444832.875000,29.6650,-93.4789,0073,29.1000
1981-08-16 09:30:00 UTC,2444832.895833,29.6650,-93.4789,0073,29.1000
1981-08-16 10:00:00 UTC,2444832.916667,29.6650,-93.4789,0073,29.1000
1981-08-16 10:30:00 UTC,2444832.937500,29.6650,-93.4789,0073,29.0000
1981-08-16 11:00:00 UTC,2444832.958333,29.6650,-93.4789,0073,29.0000
1981-08-16 11:30:00 UTC,2444832.979167,29.6650,-93.4789,0073,29.1000
1981-08-16 12:00:00 UTC,2444833.000000,29.6650,-93.4789,0073,29.2000
1981-08-16 12:30:00 UTC,2444833.020833,29.6650,-93.4789,0073,29.3000
1981-08-16 13:00:00 UTC,2444833.041667,29.6650,-93.4789,0073,29.2000
1981-08-16 13:30:00 UTC,2444833.062500,29.6650,-93.4789,0073,29.2000
1981-08-16 14:00:00 UTC,2444833.083333,29.6650,-93.4789,0073,29.3000
1981-08-16 14:30:00 UTC,2444833.104167,29.6650,-93.4789,0073,29.4000
1981-08-16 15:00:00 UTC,2444833.125000,29.6650,-93.4789,0073,29.4000
1981-08-16 15:30:00 UTC,2444833.145833,29.6650,-93.4789,0073,29.5000
1981-08-16 16:00:00 UTC,2444833.166667,29.6650,-93.4789,0073,29.6000
1981-08-16 16:30:00 UTC,2444833.187500,29.6650,-93.4789,0073,29.6000
1981-08-16 17:00:00 UTC,2444833.208333,29.6650,-93.4789,0073,29.6000
1981-08-16 17:30:00 UTC,2444833.229167,29.6650,-93.4789,0073,29.5000
1981-08-16 18:00:00 UTC,2444833.250000,29.6650,-93.4789,0073,29.5000
1981-08-16 18:30:00 UTC,2444833.270833,29.6650,-93.4789,0073,29.5000
1981-08-16 19:00:00 UTC,2444833.291667,29.6650,-93.4789,0073,29.5000
1981-08-16 19:30:00 UTC,2444833.312500,29.6650,-93.4789,0073,29.6000
1981-08-16 20:00:00 UTC,2444833.333333,29.6650,-93.4789,0073,29.6000
1981-08-16 20:30:00 UTC,2444833.354167,29.6650,-93.4789,0073,29.6000
1981-08-16 21:00:00 UTC,2444833.375000,29.6650,-93.4789,0073,29.6000
1981-08-16 21:30:00 UTC,2444833.395833,29.6650,-93.4789,0073,29.6000
1981-08-16 22:00:00 UTC,2444833.416667,29.6650,-93.4789,0073,29.6000
1981-08-16 22:30:00 UTC,2444833.437500,29.6650,-93.4789,0073,29.6000
1981-08-16 23:00:00 UTC,2444833.458333,29.6650,-93.4789,0073,29.6000
1981-08-16 23:30:00 UTC,2444833.479167,29.6650,-93.4789,0073,29.6000
1981-08-17 00:00:00 UTC,2444833.500000,29.6650,-93.4789,0073,29.6000
1981-08-17 00:30:00 UTC,2444833.520833,29.6650,-93.4789,0073,29.6000
1981-08-17 01:00:00 UTC,2444833.541667,29.6650,-93.4789,0073,29.7000
1981-08-17 01:30:00 UTC,2444833.562500,29.6650,-93.4789,0073,29.6000
1981-08-17 02:00:00 UTC,2444833.583333,29.6650,-93.4789,0073,29.6000
1981-08-17 02:30:00 UTC,2444833.604167,29.6650,-93.4789,0073,29.6000
1981-08-17 03:00:00 UTC,2444833.625000,29.6650,-93.4789,0073,29.6000
1981-08-17 03:30:00 UTC,2444833.645833,29.6650,-93.4789,0073,29.6000
1981-08-17 04:00:00 UTC,2444833.666667,29.6650,-93.4789,0073,29.6000
1981-08-17 04:30:00 UTC,2444833.687500,29.6650,-93.4789,0073,29.6000
1981-08-17 05:00:00 UTC,2444833.708333,29.6650,-93.4789,0073,29.6000
1981-08-17 05:30:00 UTC,2444833.729167,29.6650,-93.4789,0073,29.5000
1981-08-17 06:00:00 UTC,2444833.750000,29.6650,-93.4789,0073,29.6000
1981-08-17 06:30:00 UTC,2444833.770833,29.6650,-93.4789,0073,29.6000
1981-08-17 07:00:00 UTC,2444833.791667,29.6650,-93.4789,0073,29.6000
1981-08-17 07:30:00 UTC,2444833.812500,29.6650,-93.4789,0073,29.6000
1981-08-17 08:00:00 UTC,2444833.833333,29.6650,-93.4789,0073,29.6000
1981-08-17 08:30:00 UTC,2444833.854167,29.6650,-93.4789,0073,29.6000
1981-08-17 09:00:00 UTC,2444833.875000,29.6650,-93.4789,0073,29.6000
1981-08-17 09:30:00 UTC,2444833.895833,29.6650,-93.4789,0073,29.6000
1981-08-17 10:00:00 UTC,2444833.916667,29.6650,-93.4789,0073,29.6000
1981-08-17 10:30:00 UTC,2444833.937500,29.6650,-93.4789,0073,29.6000
1981-08-17 11:00:00 UTC,2444833.958333,29.6650,-93.4789,0073,29.6000
1981-08-17 11:30:00 UTC,2444833.979167,29.6650,-93.4789,0073,29.6000
1981-08-17 12:00:00 UTC,2444834.000000,29.6650,-93.4789,0073,29.6000
1981-08-17 12:30:00 UTC,2444834.020833,29.6650,-93.4789,0073,29.6000
1981-08-17 13:00:00 UTC,2444834.041667,29.6650,-93.4789,0073,29.6000
1981-08-17 13:30:00 UTC,2444834.062500,29.6650,-93.4789,0073,29.6000
1981-08-17 14:00:00 UTC,2444834.083333,29.6650,-93.4789,0073,29.6000
1981-08-17 14:30:00 UTC,2444834.104167,29.6650,-93.4789,0073,29.6000
1981-08-17 15:00:00 UTC,2444834.125000,29.6650,-93.4789,0073,29.6000
1981-08-17 15:30:00 UTC,2444834.145833,29.6650,-93.4789,0073,29.6000
1981-08-17 16:00:00 UTC,2444834.166667,29.6650,-93.4789,0073,29.6000
1981-08-17 16:30:00 UTC,2444834.187500,29.6650,-93.4789,0073,29.6000
1981-08-17 17:00:00 UTC,2444834.208333,29.6650,-93.4789,0073,29.6000
1981-08-17 17:30:00 UTC,2444834.229167,29.6650,-93.4789,0073,29.6000
1981-08-17 18:00:00 UTC,2444834.250000,29.6650,-93.4789,0073,29.7000
1981-08-17 18:30:00 UTC,2444834.270833,29.6650,-93.4789,0073,29.7000
1981-08-17 19:00:00 UTC,2444834.291667,29.6650,-93.4789,0073,29.8000
1981-08-17 19:30:00 UTC,2444834.312500,29.6650,-93.4789,0073,29.8000
1981-08-17 20:00:00 UTC,2444834.333333,29.6650,-93.4789,0073,29.8000
1981-08-17 20:30:00 UTC,2444834.354167,29.6650,-93.4789,0073,29.8000
1981-08-17 21:00:00 UTC,2444834.375000,29.6650,-93.4789,0073,29.8000
1981-08-17 21:30:00 UTC,2444834.395833,29.6650,-93.4789,0073,29.8000
1981-08-17 22:00:00 UTC,2444834.416667,29.6650,-93.4789,0073,29.8000
1981-08-17 22:30:00 UTC,2444834.437500,29.6650,-93.4789,0073,29.8000
1981-08-17 23:00:00 UTC,2444834.458333,29.6650,-93.4789,0073,29.8000
1981-08-17 23:30:00 UTC,2444834.479167,29.6650,-93.4789,0073,29.8000
1981-08-18 00:00:00 UTC,2444834.500000,29.6650,-93.4789,0073,29.8000
1981-08-18 00:30:00 UTC,2444834.520833,29.6650,-93.4789,0073,29.8000
1981-08-18 01:00:00 UTC,2444834.541667,29.6650,-93.4789,0073,29.7000
1981-08-18 01:30:00 UTC,2444834.562500,29.6650,-93.4789,0073,29.7000
1981-08-18 02:00:00 UTC,2444834.583333,29.6650,-93.4789,0073,29.6000
1981-08-18 02:30:00 UTC,2444834.604167,29.6650,-93.4789,0073,29.6000
1981-08-18 03:00:00 UTC,2444834.625000,29.6650,-93.4789,0073,29.6000
1981-08-18 03:30:00 UTC,2444834.645833,29.6650,-93.4789,0073,29.6000
1981-08-18 04:00:00 UTC,2444834.666667,29.6650,-93.4789,0073,29.6000
1981-08-18 04:30:00 UTC,2444834.687500,29.6650,-93.4789,0073,29.6000
1981-08-18 05:00:00 UTC,2444834.708333,29.6650,-93.4789,0073,29.6000
1981-08-18 05:30:00 UTC,2444834.729167,29.6650,-93.4789,0073,29.6000
1981-08-18 06:00:00 UTC,2444834.750000,29.6650,-93.4789,0073,29.6000
1981-08-18 06:30:00 UTC,2444834.770833,29.6650,-93.4789,0073,29.6000
1981-08-18 07:00:00 UTC,2444834.791667,29.6650,-93.4789,0073,29.6000
1981-08-18 07:30:00 UTC,2444834.812500,29.6650,-93.4789,0073,29.6000
1981-08-18 08:00:00 UTC,2444834.833333,29.6650,-93.4789,0073,29.5000
1981-08-18 08:30:00 UTC,2444834.854167,29.6650,-93.4789,0073,29.5000
1981-08-18 09:00:00 UTC,2444834.875000,29.6650,-93.4789,0073,29.4000
1981-08-18 09:30:00 UTC,2444834.895833,29.6650,-93.4789,0073,29.4000
1981-08-18 10:00:00 UTC,2444834.916667,29.6650,-93.4789,0073,29.3000
1981-08-18 10:30:00 UTC,2444834.937500,29.6650,-93.4789,0073,29.3000
1981-08-18 11:00:00 UTC,2444834.958333,29.6650,-93.4789,0073,29.3000
1981-08-18 11:30:00 UTC,2444834.979167,29.6650,-93.4789,0073,29.3000
1981-08-18 12:00:00 UTC,2444835.000000,29.6650,-93.4789,0073,29.3000
1981-08-18 12:30:00 UTC,2444835.020833,29.6650,-93.4789,0073,29.2000
1981-08-18 13:00:00 UTC,2444835.041667,29.6650,-93.4789,0073,29.2000
1981-08-18 13:30:00 UTC,2444835.062500,29.6650,-93.4789,0073,29.2000
1981-08-18 14:00:00 UTC,2444835.083333,29.6650,-93.4789,0073,29.2000
1981-08-18 14:30:00 UTC,2444835.104167,29.6650,-93.4789,0073,29.3000
1981-08-18 15:00:00 UTC,2444835.125000,29.6650,-93.4789,0073,29.3000
1981-08-18 15:30:00 UTC,2444835.145833,29.6650,-93.4789,0073,29.3000
1981-08-18 16:00:00 UTC,2444835.166667,29.6650,-93.4789,0073,29.3000
1981-08-18 16:30:00 UTC,2444835.187500,29.6650,-93.4789,0073,29.3000
1981-08-18 17:00:00 UTC,2444835.208333,29.6650,-93.4789,0073,29.3000
1981-08-18 17:30:00 UTC,2444835.229167,29.6650,-93.4789,0073,29.3000
1981-08-18 18:00:00 UTC,2444835.250000,29.6650,-93.4789,0073,29.3000
1981-08-18 18:30:00 UTC,2444835.270833,29.6650,-93.4789,0073,29.3000
1981-08-18 19:00:00 UTC,2444835.291667,29.6650,-93.4789,0073,29.3000
1981-08-18 19:30:00 UTC,2444835.312500,29.6650,-93.4789,0073,29.3000
1981-08-18 20:00:00 UTC,2444835.333333,29.6650,-93.4789,0073,29.3000
1981-08-18 20:30:00 UTC,2444835.354167,29.6650,-93.4789,0073,29.3000
1981-08-18 21:00:00 UTC,2444835.375000,29.6650,-93.4789,0073,29.3000
1981-08-18 21:30:00 UTC,2444835.395833,29.6650,-93.4789,0073,29.3000
1981-08-18 22:00:00 UTC,2444835.416667,29.6650,-93.4789,0073,29.3000
1981-08-18 22:30:00 UTC,2444835.437500,29.6650,-93.4789,0073,29.3000
1981-08-18 23:00:00 UTC,2444835.458333,29.6650,-93.4789,0073,29.3000
1981-08-18 23:30:00 UTC,2444835.479167,29.6650,-93.4789,0073,29.3000
1981-08-19 00:00:00 UTC,2444835.500000,29.6650,-93.4789,0073,29.3000
1981-08-19 00:30:00 UTC,2444835.520833,29.6650,-93.4789,0073,29.4000
1981-08-19 01:00:00 UTC,2444835.541667,29.6650,-93.4789,0073,29.4000
1981-08-19 01:30:00 UTC,2444835.562500,29.6650,-93.4789,0073,29.4000
1981-08-19 02:00:00 UTC,2444835.583333,29.6650,-93.4789,0073,29.4000
1981-08-19 02:30:00 UTC,2444835.604167,29.6650,-93.4789,0073,29.4000
1981-08-19 03:00:00 UTC,2444835.625000,29.6650,-93.4789,0073,29.4000
1981-08-19 03:30:00 UTC,2444835.645833,29.6650,-93.4789,0073,29.4000
1981-08-19 04:00:00 UTC,2444835.666667,29.6650,-93.4789,0073,29.4000
1981-08-19 04:30:00 UTC,2444835.687500,29.6650,-93.4789,0073,29.4000
1981-08-19 05:00:00 UTC,2444835.708333,29.6650,-93.4789,0073,29.4000
1981-08-19 05:30:00 UTC,2444835.729167,29.6650,-93.4789,0073,29.5000
1981-08-19 06:00:00 UTC,2444835.750000,29.6650,-93.4789,0073,29.5000
1981-08-19 06:30:00 UTC,2444835.770833,29.6650,-93.4789,0073,29.5000
1981-08-19 07:00:00 UTC,2444835.791667,29.6650,-93.4789,0073,29.5000
1981-08-19 07:30:00 UTC,2444835.812500,29.6650,-93.4789,0073,29.4000
1981-08-19 08:00:00 UTC,2444835.833333,29.6650,-93.4789,0073,29.4000
1981-08-19 08:30:00 UTC,2444835.854167,29.6650,-93.4789,0073,29.4000
1981-08-19 09:00:00 UTC,2444835.875000,29.6650,-93.4789,0073,29.4000
1981-08-19 09:30:00 UTC,2444835.895833,29.6650,-93.4789,0073,29.4000
1981-08-19 10:00:00 UTC,2444835.916667,29.6650,-93.4789,0073,29.4000
1981-08-19 10:30:00 UTC,2444835.937500,29.6650,-93.4789,0073,29.4000
1981-08-19 11:00:00 UTC,2444835.958333,29.6650,-93.4789,0073,29.4000
1981-08-19 11:30:00 UTC,2444835.979167,29.6650,-93.4789,0073,29.4000
1981-08-19 12:00:00 UTC,2444836.000000,29.6650,-93.4789,0073,29.4000
1981-08-19 12:30:00 UTC,2444836.020833,29.6650,-93.4789,0073,29.4000
1981-08-19 13:00:00 UTC,2444836.041667,29.6650,-93.4789,0073,29.4000
1981-08-19 13:30:00 UTC,2444836.062500,29.6650,-93.4789,0073,29.5000
1981-08-19 14:00:00 UTC,2444836.083333,29.6650,-93.4789,0073,29.4000
1981-08-19 14:30:00 UTC,2444836.104167,29.6650,-93.4789,0073,29.4000
1981-08-19 15:00:00 UTC,2444836.125000,29.6650,-93.4789,0073,29.4000
1981-08-19 15:30:00 UTC,2444836.145833,29.6650,-93.4789,0073,29.5000
1981-08-19 16:00:00 UTC,2444836.166667,29.6650,-93.4789,0073,29.5000
1981-08-19 16:30:00 UTC,2444836.187500,29.6650,-93.4789,0073,29.5000
1981-08-19 17:00:00 UTC,2444836.208333,29.6650,-93.4789,0073,29.5000
1981-08-19 17:30:00 UTC,2444836.229167,29.6650,-93.4789,0073,29.5000
1981-08-19 18:00:00 UTC,2444836.250000,29.6650,-93.4789,0073,29.5000
1981-08-19 18:30:00 UTC,2444836.270833,29.6650,-93.4789,0073,29.5000
1981-08-19 19:00:00 UTC,2444836.291667,29.6650,-93.4789,0073,29.6000
1981-08-19 19:30:00 UTC,2444836.312500,29.6650,-93.4789,0073,29.7000
1981-08-19 20:00:00 UTC,2444836.333333,29.6650,-93.4789,0073,29.8000
1981-08-19 20:30:00 UTC,2444836.354167,29.6650,-93.4789,0073,29.9000
1981-08-19 21:00:00 UTC,2444836.375000,29.6650,-93.4789,0073,30.1000
1981-08-19 21:30:00 UTC,2444836.395833,29.6650,-93.4789,0073,30.3000
1981-08-19 22:00:00 UTC,2444836.416667,29.6650,-93.4789,0073,30.4000
1981-08-19 22:30:00 UTC,2444836.437500,29.6650,-93.4789,0073,30.3000
1981-08-19 23:00:00 UTC,2444836.458333,29.6650,-93.4789,0073,30.3000
1981-08-19 23:30:00 UTC,2444836.479167,29.6650,-93.4789,0073,30.5000
1981-08-20 00:00:00 UTC,2444836.500000,29.6650,-93.4789,0073,30.7000
1981-08-20 00:30:00 UTC,2444836.520833,29.6650,-93.4789,0073,30.9000
1981-08-20 01:00:00 UTC,2444836.541667,29.6650,-93.4789,0073,31.1000
1981-08-20 01:30:00 UTC,2444836.562500,29.6650,-93.4789,0073,31.1000
1981-08-20 02:00:00 UTC,2444836.583333,29.6650,-93.4789,0073,31.1000
1981-08-20 02:30:00 UTC,2444836.604167,29.6650,-93.4789,0073,31.0000
1981-08-20 03:00:00 UTC,2444836.625000,29.6650,-93.4789,0073,30.9000
1981-08-20 03:30:00 UTC,2444836.645833,29.6650,-93.4789,0073,30.8000
1981-08-20 04:00:00 UTC,2444836.666667,29.6650,-93.4789,0073,30.7000
1981-08-20 04:30:00 UTC,2444836.687500,29.6650,-93.4789,0073,30.6000
1981-08-20 05:00:00 UTC,2444836.708333,29.6650,-93.4789,0073,30.4000
1981-08-20 05:30:00 UTC,2444836.729167,29.6650,-93.4789,0073,30.2000
1981-08-20 06:00:00 UTC,2444836.750000,29.6650,-93.4789,0073,30.1000
1981-08-20 06:30:00 UTC,2444836.770833,29.6650,-93.4789,0073,30.2000
1981-08-20 07:00:00 UTC,2444836.791667,29.6650,-93.4789,0073,30.3000
1981-08-20 07:30:00 UTC,2444836.812500,29.6650,-93.4789,0073,30.3000
1981-08-20 08:00:00 UTC,2444836.833333,29.6650,-93.4789,0073,30.4000
1981-08-20 08:30:00 UTC,2444836.854167,29.6650,-93.4789,0073,30.6000
1981-08-20 09:00:00 UTC,2444836.875000,29.6650,-93.4789,0073,30.7000
1981-08-20 09:30:00 UTC,2444836.895833,29.6650,-93.4789,0073,30.7000
1981-08-20 10:00:00 UTC,2444836.916667,29.6650,-93.4789,0073,30.6000
1981-08-20 10:30:00 UTC,2444836.937500,29.6650,-93.4789,0073,30.4000
1981-08-20 11:00:00 UTC,2444836.958333,29.6650,-93.4789,0073,30.3000
1981-08-20 11:30:00 UTC,2444836.979167,29.6650,-93.4789,0073,30.2000
1981-08-20 12:00:00 UTC,2444837.000000,29.6650,-93.4789,0073,30.2000
1981-08-20 12:30:00 UTC,2444837.020833,29.6650,-93.4789,0073,30.1000
1981-08-20 13:00:00 UTC,2444837.041667,29.6650,-93.4789,0073,30.0000
1981-08-20 13:30:00 UTC,2444837.062500,29.6650,-93.4789,0073,30.0000
1981-08-20 14:00:00 UTC,2444837.083333,29.6650,-93.4789,0073,30.0000
1981-08-20 14:30:00 UTC,2444837.104167,29.6650,-93.4789,0073,29.8000
1981-08-20 15:00:00 UTC,2444837.125000,29.6650,-93.4789,0073,29.7000
1981-08-20 15:30:00 UTC,2444837.145833,29.6650,-93.4789,0073,29.6000
1981-08-20 16:00:00 UTC,2444837.166667,29.6650,-93.4789,0073,29.6000
1981-08-20 16:30:00 UTC,2444837.187500,29.6650,-93.4789,0073,29.7000
1981-08-20 17:00:00 UTC,2444837.208333,29.6650,-93.4789,0073,29.8000
1981-08-20 17:30:00 UTC,2444837.229167,29.6650,-93.4789,0073,29.8000
1981-08-20 18:00:00 UTC,2444837.250000,29.6650,-93.4789,0073,29.8000
1981-08-20 18:30:00 UTC,2444837.270833,29.6650,-93.4789,0073,29.8000
1981-08-20 19:00:00 UTC,2444837.291667,29.6650,-93.4789,0073,29.7000
1981-08-20 19:30:00 UTC,2444837.312500,29.6650,-93.4789,0073,29.6000
1981-08-20 20:00:00 UTC,2444837.333333,29.6650,-93.4789,0073,29.6000
1981-08-20 20:30:00 UTC,2444837.354167,29.6650,-93.4789,0073,29.4000
1981-08-20 21:00:00 UTC,2444837.375000,29.6650,-93.4789,0073,29.3000
1981-08-20 21:30:00 UTC,2444837.395833,29.6650,-93.4789,0073,29.3000
1981-08-20 22:00:00 UTC,2444837.416667,29.6650,-93.4789,0073,29.2000
1981-08-20 22:30:00 UTC,2444837.437500,29.6650,-93.4789,0073,29.3000
1981-08-20 23:00:00 UTC,2444837.458333,29.6650,-93.4789,0073,29.4000
1981-08-20 23:30:00 UTC,2444837.479167,29.6650,-93.4789,0073,29.6000
1981-08-21 00:00:00 UTC,2444837.500000,29.6650,-93.4789,0073,29.6000
1981-08-21 00:30:00 UTC,2444837.520833,29.6650,-93.4789,0073,29.6000
1981-08-21 01:00:00 UTC,2444837.541667,29.6650,-93.4789,0073,29.6000
1981-08-21 01:30:00 UTC,2444837.562500,29.6650,-93.4789,0073,29.6000
1981-08-21 02:00:00 UTC,2444837.583333,29.6650,-93.4789,0073,29.6000
1981-08-21 02:30:00 UTC,2444837.604167,29.6650,-93.4789,0073,29.5000
1981-08-21 03:00:00 UTC,2444837.625000,29.6650,-93.4789,0073,29.0000
1981-08-21 03:30:00 UTC,2444837.645833,29.6650,-93.4789,0073,28.7000
1981-08-21 04:00:00 UTC,2444837.666667,29.6650,-93.4789,0073,29.0000
1981-08-21 04:30:00 UTC,2444837.687500,29.6650,-93.4789,0073,29.5000
1981-08-21 05:00:00 UTC,2444837.708333,29.6650,-93.4789,0073,29.6000
1981-08-21 05:30:00 UTC,2444837.729167,29.6650,-93.4789,0073,29.7000
1981-08-21 06:00:00 UTC,2444837.750000,29.6650,-93.4789,0073,29.9000